Simultaneous Nadir Overpasses (SNOs) Predictions

Prediction of SNOs between AQUA and NOAA-19 Satellite Orbit:

Table of predicted SNOs for the next 14.0 days since TLE Epoch: 1/24/2025
Index Date (AQUA) Time (AQUA) Lat,Lon (AQUA) SZA (AQUA ) Date (NOAA-19) Time (NOAA-19) Lat,Lon (NOAA-19) SZA (NOAA-19 ) Distance(km) Time Diff (sec)
1 01/25/2025 02:42:47 -75.61, -38.22 85.55 01/25/2025 02:42:13 -75.64, -38.20 85.52 3.57 34
2 01/25/2025 03:32:09 75.69, 129.19 94.53 01/25/2025 03:33:05 75.66, 129.16 94.50 3.62 56
3 01/27/2025 05:40:35 -75.64, -82.72 86.06 01/27/2025 05:40:39 -75.66, -82.70 86.04 2.06 4
4 01/29/2025 07:49:02 75.61, 65.33 93.36 01/29/2025 07:48:02 75.59, 65.28 93.35 2.19 60
5 01/29/2025 08:38:22 -75.69,-127.26 86.57 01/29/2025 08:39:05 -75.67,-127.24 86.59 3.08 43
6 01/31/2025 10:46:47 75.63, 20.87 92.80 01/31/2025 10:46:27 75.63, 20.84 92.80 0.66 20
7 01/31/2025 11:36:14 -76.06,-172.77 86.78 01/31/2025 11:37:21 -76.11,-170.24 86.74 67.87 67
8 02/02/2025 12:55:10 -75.62, 168.86 87.82 02/02/2025 12:54:01 -75.60, 168.92 87.83 2.18 69
9 02/02/2025 13:44:31 75.67, -23.64 92.23 02/02/2025 13:44:52 75.66, -23.62 92.22 1.96 21
10 02/04/2025 15:52:52 -75.63, 124.46 88.45 02/04/2025 15:52:26 -75.62, 124.41 88.45 1.61 26
11 02/04/2025 16:42:13 75.69, -68.06 91.61 02/04/2025 16:43:17 75.68, -68.12 91.60 2.02 64
12 02/06/2025 18:01:04 75.13, -86.17 90.42 02/06/2025 17:59:59 75.05, -89.20 90.35 87.38 65
13 02/06/2025 18:50:33 -75.65, 80.01 89.07 02/06/2025 18:50:50 -75.67, 80.01 89.05 1.75 17



Historial Predications of SNOs between AQUA and NOAA-19
